AFR601 SOCA-TFFF

Flight info

Callsign AFR601
Flight time N/A
Altitude 36000
Route REKIM1A REKIM UN674 BUXEX UA555 BGI A555 BORUS BORUS2X
Aircraft A320/M-SDE2E3FGIJ1RWY/HB1

Departure

Time 2026-05-06 15:36
Airport Cayenne – Félix Eboué Airport (SOCA)

Arrival

Time N/A
Airport Martinique Aimé Césaire International Airport (TFFF)
Time Latitude Longitude Altitude Speed Heading
2026-05-06 14:30 4.82154 -52.36367 29 ft 0 kts 334°
2026-05-06 15:26 4.82152 -52.36366 29 ft 3 kts 334°
2026-05-06 15:26 4.82128 -52.36354 29 ft 4 kts 332°
2026-05-06 15:27 4.82108 -52.36345 29 ft 4 kts 341°
2026-05-06 15:27 4.82083 -52.36342 29 ft 4 kts 19°
2026-05-06 15:27 4.82064 -52.36355 29 ft 2 kts 65°
2026-05-06 15:27 4.82063 -52.36357 29 ft 0 kts 65°
2026-05-06 15:30 4.82067 -52.36348 29 ft 2 kts 65°
2026-05-06 15:30 4.82079 -52.36322 29 ft 6 kts 65°
2026-05-06 15:30 4.82091 -52.36281 29 ft 7 kts 102°
2026-05-06 15:30 4.82050 -52.36250 29 ft 8 kts 154°
2026-05-06 15:31 4.82002 -52.36227 29 ft 7 kts 154°
2026-05-06 15:31 4.81960 -52.36229 29 ft 7 kts 210°
2026-05-06 15:31 4.81925 -52.36285 29 ft 10 kts 245°
2026-05-06 15:32 4.81865 -52.36412 29 ft 12 kts 245°
2026-05-06 15:32 4.81823 -52.36505 28 ft 16 kts 245°
2026-05-06 15:32 4.81778 -52.36604 28 ft 16 kts 245°
2026-05-06 15:32 4.81725 -52.36721 28 ft 21 kts 245°
2026-05-06 15:33 4.81665 -52.36850 28 ft 20 kts 245°
2026-05-06 15:33 4.81610 -52.36971 28 ft 18 kts 245°
2026-05-06 15:33 4.81558 -52.37083 28 ft 17 kts 245°
2026-05-06 15:33 4.81511 -52.37185 27 ft 16 kts 245°
2026-05-06 15:34 4.81468 -52.37279 27 ft 14 kts 245°
2026-05-06 15:34 4.81442 -52.37357 27 ft 10 kts 270°
2026-05-06 15:34 4.81443 -52.37416 27 ft 6 kts 240°
2026-05-06 15:34 4.81410 -52.37408 27 ft 5 kts 117°
2026-05-06 15:35 4.81414 -52.37393 27 ft 0 kts 64°
2026-05-06 15:35 4.81426 -52.37369 27 ft 24 kts 64°
2026-05-06 15:35 4.81601 -52.36988 28 ft 92 kts 65°
2026-05-06 15:35 4.81950 -52.36229 29 ft 145 kts 65°
2026-05-06 15:36 4.82408 -52.35243 469 ft 154 kts 64°
2026-05-06 15:36 4.82821 -52.34243 1207 ft 156 kts 71°
2026-05-06 15:36 4.83113 -52.33171 1822 ft 162 kts 74°
2026-05-06 15:36 4.83396 -52.32057 2395 ft 165 kts 74°
2026-05-06 15:37 4.83685 -52.30948 3009 ft 164 kts 75°
2026-05-06 15:37 4.83976 -52.29826 3509 ft 172 kts 74°
2026-05-06 15:37 4.84299 -52.28596 3750 ft 194 kts 75°
2026-05-06 15:37 4.84663 -52.27210 3983 ft 217 kts 75°
2026-05-06 15:38 4.85066 -52.25667 4321 ft 241 kts 75°
2026-05-06 15:38 4.85504 -52.23984 4855 ft 255 kts 75°
2026-05-06 15:38 4.85954 -52.22246 5629 ft 260 kts 76°
2026-05-06 15:38 4.86552 -52.20526 6429 ft 264 kts 60°
2026-05-06 15:39 4.87792 -52.19161 7169 ft 271 kts 37°
2026-05-06 15:39 4.89529 -52.18417 7894 ft 282 kts 13°
2026-05-06 15:39 4.91517 -52.18397 8622 ft 290 kts 358°
2026-05-06 15:39 4.93545 -52.18567 9334 ft 294 kts 358°
2026-05-06 15:40 4.95600 -52.18740 10030 ft 298 kts 359°
2026-05-06 15:40 4.97668 -52.19057 10673 ft 308 kts 346°
2026-05-06 15:40 4.99624 -52.20130 10848 ft 337 kts 321°
2026-05-06 15:40 5.01354 -52.21827 11044 ft 357 kts 317°
2026-05-06 15:41 5.03113 -52.23635 11567 ft 365 kts 316°
2026-05-06 15:41 5.04884 -52.25478 12203 ft 369 kts 316°
2026-05-06 15:41 5.06672 -52.27341 12847 ft 372 kts 316°
2026-05-06 15:41 5.08477 -52.29212 13509 ft 374 kts 316°
2026-05-06 15:42 5.10301 -52.31088 14142 ft 377 kts 316°
2026-05-06 15:42 5.12142 -52.32970 14771 ft 379 kts 316°
2026-05-06 15:42 5.13999 -52.34861 15381 ft 382 kts 316°
2026-05-06 15:42 5.15867 -52.36761 15981 ft 384 kts 316°
2026-05-06 15:43 5.17747 -52.38677 16557 ft 386 kts 316°
2026-05-06 15:43 5.19632 -52.40600 17114 ft 388 kts 316°
2026-05-06 15:43 5.21529 -52.42536 17643 ft 390 kts 316°
2026-05-06 15:43 5.23435 -52.44484 18182 ft 392 kts 316°
2026-05-06 15:44 5.25325 -52.46418 18687 ft 395 kts 315°
2026-05-06 15:44 5.27258 -52.48394 19197 ft 398 kts 315°
2026-05-06 15:44 5.29206 -52.50385 19691 ft 400 kts 315°
2026-05-06 15:44 5.31166 -52.52388 20183 ft 403 kts 315°
2026-05-06 15:45 5.33137 -52.54403 20655 ft 406 kts 315°
2026-05-06 15:45 5.35118 -52.56431 21112 ft 408 kts 314°
2026-05-06 15:45 5.37112 -52.58473 21563 ft 410 kts 314°
2026-05-06 15:45 5.39120 -52.60525 21990 ft 413 kts 314°
2026-05-06 15:46 5.41142 -52.62590 22423 ft 416 kts 314°
2026-05-06 15:46 5.43176 -52.64671 22837 ft 418 kts 314°
2026-05-06 15:46 5.45211 -52.66760 23224 ft 420 kts 314°
2026-05-06 15:46 5.47267 -52.68866 23606 ft 423 kts 314°
2026-05-06 15:47 5.49334 -52.70979 23977 ft 425 kts 314°
2026-05-06 15:47 5.51413 -52.73105 24335 ft 427 kts 314°
2026-05-06 15:47 5.53503 -52.75241 24673 ft 430 kts 314°
2026-05-06 15:47 5.55605 -52.77393 24986 ft 433 kts 313°
2026-05-06 15:48 5.57694 -52.79533 25294 ft 435 kts 314°
2026-05-06 15:48 5.59822 -52.81711 25595 ft 438 kts 314°
2026-05-06 15:48 5.61962 -52.83899 25882 ft 441 kts 314°
2026-05-06 15:48 5.64119 -52.86105 26177 ft 443 kts 313°
2026-05-06 15:49 5.66283 -52.88321 26452 ft 446 kts 313°
2026-05-06 15:49 5.68463 -52.90555 26723 ft 448 kts 313°
2026-05-06 15:49 5.70655 -52.92801 26993 ft 450 kts 313°
2026-05-06 15:49 5.72853 -52.95052 27256 ft 453 kts 313°
2026-05-06 15:50 5.75060 -52.97311 27518 ft 455 kts 313°
2026-05-06 15:50 5.77284 -52.99588 27765 ft 457 kts 313°
2026-05-06 15:50 5.79513 -53.01874 28013 ft 459 kts 313°
2026-05-06 15:50 5.81753 -53.04173 28257 ft 461 kts 313°
2026-05-06 15:51 5.84002 -53.06480 28493 ft 464 kts 313°
2026-05-06 15:51 5.86266 -53.08800 28725 ft 466 kts 313°
2026-05-06 15:51 5.88538 -53.11127 28946 ft 468 kts 313°
2026-05-06 15:51 5.90825 -53.13471 29154 ft 470 kts 313°
2026-05-06 15:52 5.93119 -53.15820 29377 ft 472 kts 313°
2026-05-06 15:52 5.95428 -53.18177 29589 ft 474 kts 313°
2026-05-06 15:52 5.97744 -53.20545 29804 ft 476 kts 313°
2026-05-06 15:52 6.00037 -53.22895 30008 ft 478 kts 313°
2026-05-06 15:53 6.02366 -53.25284 30203 ft 479 kts 313°
2026-05-06 15:53 6.04699 -53.27681 30418 ft 480 kts 313°
2026-05-06 15:53 6.07037 -53.30082 30618 ft 481 kts 313°
2026-05-06 15:53 6.09386 -53.32489 30829 ft 482 kts 313°
2026-05-06 15:54 6.11740 -53.34903 31024 ft 483 kts 313°
2026-05-06 15:54 6.14095 -53.37322 31267 ft 483 kts 313°
2026-05-06 15:54 6.16440 -53.39732 31535 ft 482 kts 312°
2026-05-06 15:54 6.18779 -53.42140 31805 ft 481 kts 312°
2026-05-06 15:55 6.21115 -53.44545 32082 ft 480 kts 312°
2026-05-06 15:55 6.23448 -53.46941 32352 ft 479 kts 312°
2026-05-06 15:55 6.25776 -53.49331 32645 ft 478 kts 312°
2026-05-06 15:55 6.28099 -53.51712 32921 ft 476 kts 312°
2026-05-06 15:56 6.30417 -53.54085 33189 ft 476 kts 312°
2026-05-06 15:56 6.32731 -53.56456 33462 ft 474 kts 312°
2026-05-06 15:56 6.35037 -53.58822 33734 ft 473 kts 312°
2026-05-06 15:56 6.37338 -53.61187 34000 ft 473 kts 312°
2026-05-06 15:57 6.39632 -53.63553 34279 ft 471 kts 311°
2026-05-06 15:57 6.41889 -53.65884 34544 ft 470 kts 311°
2026-05-06 15:57 6.44169 -53.68235 34816 ft 468 kts 311°
2026-05-06 15:57 6.46440 -53.70574 35078 ft 467 kts 311°
2026-05-06 15:58 6.48707 -53.72907 35333 ft 466 kts 312°
2026-05-06 15:58 6.50969 -53.75238 35587 ft 464 kts 312°
2026-05-06 15:58 6.53222 -53.77554 35838 ft 462 kts 312°
2026-05-06 15:58 6.55468 -53.79862 36012 ft 461 kts 312°
2026-05-06 15:59 6.59939 -53.84450 36040 ft 457 kts 312°
2026-05-06 15:59 6.64377 -53.89021 36041 ft 456 kts 312°
2026-05-06 16:00 6.68804 -53.93596 36051 ft 456 kts 311°
2026-05-06 16:00 6.73234 -53.98163 36051 ft 456 kts 312°
2026-05-06 16:01 6.77905 -54.02441 36055 ft 458 kts 317°
2026-05-06 16:01 6.82782 -54.06560 36060 ft 458 kts 317°
2026-05-06 16:02 6.87657 -54.10698 36059 ft 458 kts 317°
2026-05-06 16:02 6.92537 -54.14829 36061 ft 458 kts 317°
2026-05-06 16:03 6.97412 -54.18964 36066 ft 458 kts 317°
2026-05-06 16:03 7.02291 -54.23104 36070 ft 458 kts 317°
2026-05-06 16:04 7.07174 -54.27243 36066 ft 458 kts 317°
2026-05-06 16:04 7.12050 -54.31369 36067 ft 458 kts 317°
2026-05-06 16:05 7.16923 -54.35510 36070 ft 458 kts 317°
2026-05-06 16:05 7.21763 -54.39625 36070 ft 458 kts 317°
2026-05-06 16:06 7.26637 -54.43762 36072 ft 458 kts 317°
2026-05-06 16:06 7.31505 -54.47892 36072 ft 457 kts 317°
2026-05-06 16:07 7.36371 -54.52031 36070 ft 457 kts 317°
2026-05-06 16:07 7.41233 -54.56172 36072 ft 458 kts 317°
2026-05-06 16:08 7.45282 -54.59617 36067 ft 458 kts 317°
2026-05-06 16:08 7.50155 -54.63751 36061 ft 458 kts 317°
2026-05-06 16:09 7.55031 -54.67891 36056 ft 458 kts 317°
2026-05-06 16:09 7.59902 -54.72031 36054 ft 458 kts 317°
2026-05-06 16:10 7.64762 -54.76176 36049 ft 458 kts 317°
2026-05-06 16:10 7.69628 -54.80317 36050 ft 457 kts 317°
2026-05-06 16:11 7.74486 -54.84450 36060 ft 457 kts 317°
2026-05-06 16:11 7.79316 -54.88569 36055 ft 457 kts 317°
2026-05-06 16:12 7.84171 -54.92712 36050 ft 457 kts 317°
2026-05-06 16:12 7.89025 -54.96856 36051 ft 457 kts 317°
2026-05-06 16:13 7.93883 -55.00994 36046 ft 457 kts 317°
2026-05-06 16:13 7.98738 -55.05137 36052 ft 457 kts 317°
2026-05-06 16:14 8.03594 -55.09278 36047 ft 457 kts 317°
2026-05-06 16:14 8.08427 -55.13398 36052 ft 457 kts 317°
2026-05-06 16:15 8.13283 -55.17543 36053 ft 457 kts 317°
2026-05-06 16:15 8.18136 -55.21689 36049 ft 457 kts 317°
2026-05-06 16:16 8.22988 -55.25836 36049 ft 457 kts 317°
2026-05-06 16:16 8.27837 -55.29982 36056 ft 457 kts 317°
2026-05-06 16:17 8.32686 -55.34129 36062 ft 456 kts 317°
2026-05-06 16:17 8.37526 -55.38270 36056 ft 457 kts 317°
2026-05-06 16:18 8.42369 -55.42409 36063 ft 456 kts 317°
2026-05-06 16:18 8.47188 -55.46531 36049 ft 456 kts 317°
2026-05-06 16:19 8.52026 -55.50682 36048 ft 456 kts 317°
2026-05-06 16:19 8.56867 -55.54831 36048 ft 456 kts 317°
2026-05-06 16:20 8.61705 -55.58976 36049 ft 456 kts 317°
2026-05-06 16:20 8.66548 -55.63118 36052 ft 456 kts 317°
2026-05-06 16:21 8.71377 -55.67261 36057 ft 455 kts 317°
2026-05-06 16:21 8.76217 -55.71404 36046 ft 456 kts 317°
2026-05-06 16:22 8.81049 -55.75551 36046 ft 456 kts 317°
2026-05-06 16:22 8.85854 -55.79685 36048 ft 456 kts 317°
2026-05-06 16:23 8.90693 -55.83840 36055 ft 456 kts 317°
2026-05-06 16:23 8.95534 -55.87992 36058 ft 456 kts 317°
2026-05-06 16:24 9.00374 -55.92147 36058 ft 456 kts 317°
2026-05-06 16:24 9.05205 -55.96301 36062 ft 455 kts 317°
2026-05-06 16:25 9.10034 -56.00459 36055 ft 455 kts 317°
2026-05-06 16:25 9.14863 -56.04608 36055 ft 455 kts 317°
2026-05-06 16:26 9.19690 -56.08756 36060 ft 455 kts 317°
2026-05-06 16:26 9.24484 -56.12889 36051 ft 455 kts 317°
2026-05-06 16:27 9.29316 -56.17056 36058 ft 456 kts 317°
2026-05-06 16:27 9.34139 -56.21221 36062 ft 456 kts 317°
2026-05-06 16:28 9.38972 -56.25378 36060 ft 456 kts 317°
2026-05-06 16:28 9.43799 -56.29535 36066 ft 456 kts 317°
2026-05-06 16:29 9.48630 -56.33699 36063 ft 455 kts 317°
2026-05-06 16:29 9.53452 -56.37869 36065 ft 455 kts 316°
2026-05-06 16:30 9.57462 -56.41334 36064 ft 455 kts 317°
2026-05-06 16:30 9.63106 -56.46201 36064 ft 455 kts 317°
2026-05-06 16:31 9.67926 -56.50361 36063 ft 455 kts 317°
2026-05-06 16:31 9.72746 -56.54526 36063 ft 455 kts 317°
2026-05-06 16:32 9.77533 -56.58666 36056 ft 455 kts 317°
2026-05-06 16:32 9.82351 -56.62833 36062 ft 455 kts 317°
2026-05-06 16:33 9.87162 -56.66998 36053 ft 455 kts 317°
2026-05-06 16:34 9.94381 -56.73244 36054 ft 455 kts 317°
2026-05-06 16:34 9.99200 -56.77421 36060 ft 455 kts 317°
2026-05-06 16:35 10.04017 -56.81595 36063 ft 455 kts 317°
2026-05-06 16:35 10.08837 -56.85774 36063 ft 455 kts 317°
2026-05-06 16:36 10.13657 -56.89944 36066 ft 455 kts 317°
2026-05-06 16:36 10.18437 -56.94088 36065 ft 454 kts 317°
2026-05-06 16:37 10.23267 -56.98288 36071 ft 454 kts 317°
2026-05-06 16:37 10.28050 -57.02433 36067 ft 455 kts 317°
2026-05-06 16:38 10.32853 -57.06605 36066 ft 454 kts 317°
2026-05-06 16:38 10.37661 -57.10780 36066 ft 454 kts 317°
2026-05-06 16:39 10.42462 -57.14957 36068 ft 454 kts 317°
2026-05-06 16:39 10.47260 -57.19149 36070 ft 454 kts 317°
2026-05-06 16:40 10.52063 -57.23324 36070 ft 454 kts 317°
2026-05-06 16:40 10.56875 -57.27497 36065 ft 454 kts 317°
2026-05-06 16:41 10.61641 -57.31644 36067 ft 454 kts 317°
2026-05-06 16:41 10.66443 -57.35823 36071 ft 454 kts 317°
2026-05-06 16:42 10.71234 -57.40001 36064 ft 454 kts 317°
2026-05-06 16:42 10.76030 -57.44192 36071 ft 455 kts 317°
2026-05-06 16:43 10.80829 -57.48385 36078 ft 454 kts 317°
2026-05-06 16:43 10.85632 -57.52580 36080 ft 454 kts 317°
2026-05-06 16:44 10.90432 -57.56765 36079 ft 454 kts 317°
2026-05-06 16:44 10.95193 -57.60924 36080 ft 454 kts 317°
2026-05-06 16:45 10.99990 -57.65107 36080 ft 453 kts 317°
2026-05-06 16:45 11.04775 -57.69289 36080 ft 453 kts 317°
2026-05-06 16:46 11.09550 -57.73474 36079 ft 452 kts 317°
2026-05-06 16:46 11.14318 -57.77649 36077 ft 452 kts 317°
2026-05-06 16:47 11.19100 -57.81826 36076 ft 452 kts 318°
2026-05-06 16:47 11.23880 -57.86000 36079 ft 453 kts 317°
2026-05-06 16:48 11.28653 -57.90185 36082 ft 453 kts 317°
2026-05-06 16:48 11.33397 -57.94343 36086 ft 453 kts 318°
2026-05-06 16:49 11.38180 -57.98538 36091 ft 453 kts 318°
2026-05-06 16:49 11.42958 -58.02740 36095 ft 453 kts 318°
2026-05-06 16:50 11.47739 -58.06942 36096 ft 453 kts 318°
2026-05-06 16:50 11.52516 -58.11131 36094 ft 453 kts 318°
2026-05-06 16:51 11.57262 -58.15300 36094 ft 453 kts 318°
2026-05-06 16:51 11.62031 -58.19495 36096 ft 452 kts 318°
2026-05-06 16:52 11.66805 -58.23687 36094 ft 452 kts 318°
2026-05-06 16:52 11.71561 -58.27877 36092 ft 452 kts 318°
2026-05-06 16:53 11.76290 -58.32050 36091 ft 452 kts 318°
2026-05-06 16:53 11.81052 -58.36234 36089 ft 451 kts 318°
2026-05-06 16:54 11.85810 -58.40420 36088 ft 451 kts 318°
2026-05-06 16:54 11.89763 -58.43903 36087 ft 452 kts 318°
2026-05-06 16:55 11.94515 -58.48102 36088 ft 451 kts 318°
2026-05-06 16:55 11.99262 -58.52293 36084 ft 451 kts 318°
2026-05-06 16:56 12.04008 -58.56481 36084 ft 451 kts 318°
2026-05-06 16:56 12.08755 -58.60675 36084 ft 451 kts 318°
2026-05-06 16:57 12.13492 -58.64880 36086 ft 451 kts 318°
2026-05-06 16:57 12.18228 -58.69076 36084 ft 451 kts 318°
2026-05-06 16:58 12.22973 -58.73275 36085 ft 451 kts 318°
2026-05-06 16:58 12.27721 -58.77475 36088 ft 451 kts 318°
2026-05-06 16:59 12.32464 -58.81667 36086 ft 450 kts 318°
2026-05-06 16:59 12.37201 -58.85858 36083 ft 450 kts 318°
2026-05-06 17:00 12.41909 -58.90032 36082 ft 451 kts 318°
2026-05-06 17:00 12.46641 -58.94236 36081 ft 450 kts 318°
2026-05-06 17:01 12.51377 -58.98439 36084 ft 451 kts 318°
2026-05-06 17:01 12.56121 -59.02654 36088 ft 451 kts 318°
2026-05-06 17:02 12.60868 -59.06868 36089 ft 451 kts 318°
2026-05-06 17:02 12.65609 -59.11077 36089 ft 451 kts 318°
2026-05-06 17:03 12.70360 -59.15289 36091 ft 451 kts 318°
2026-05-06 17:03 12.75072 -59.19472 36091 ft 451 kts 318°
2026-05-06 17:04 12.79816 -59.23696 36092 ft 451 kts 317°
2026-05-06 17:04 12.84550 -59.27922 36091 ft 451 kts 318°
2026-05-06 17:05 12.89293 -59.32142 36092 ft 451 kts 318°
2026-05-06 17:05 12.94001 -59.36330 36093 ft 451 kts 318°
2026-05-06 17:06 12.98737 -59.40555 36091 ft 451 kts 317°
2026-05-06 17:06 13.03466 -59.44777 36091 ft 450 kts 317°
2026-05-06 17:07 13.08185 -59.49003 36091 ft 450 kts 317°
2026-05-06 17:07 13.12717 -59.53430 36086 ft 450 kts 314°
2026-05-06 17:08 13.17113 -59.57994 36082 ft 450 kts 313°
2026-05-06 17:08 13.21549 -59.62550 35874 ft 451 kts 314°